{"data":{"norad_id":52255,"intl_designator":"2022-038A","name":"ZHONGXING-6D","alt_names":[],"object_type":"PAYLOAD","status":"ACTIVE","operator":null,"country":"PRC","launch_date":"2022-04-15","launch_site_code":"XICLF","launch_vehicle":null,"mission":null,"orbit_class":"UNKNOWN","rcs_meters":null,"size_class":null,"mass_kg":null,"dimensions":null,"purposes":["comms"],"wikipedia_slug":null,"has_3d_model":false,"image_url":null,"decayed_at":null,"tle_current":{"epoch":"2026-09-19T15:46:03.484992Z","epoch_age_seconds":94768,"freshness":"FRESH","line1":"1 52255U 22038A   26262.65698478  .00000000  00000+0  00000+0 0  9993","line2":"2 52255   0.0352 195.0245 0002546  25.1478 139.8089  1.00273743 16362","mean_motion":1.00273743,"eccentricity":0.0002546,"inclination_deg":0.0352,"raan_deg":195.0245,"arg_perigee_deg":25.1478,"mean_anomaly_deg":139.8089,"bstar":0,"rev_number":1636,"period_min":1436.0688620151,"perigee_km":35775.311070635,"apogee_km":35796.781072655,"semimajor_km":42164.183071645,"source":"CELESTRAK","updated_at":"2026-09-20T09:00:35.303534Z"}}}